Regional Weather Roundup
Issued by NWS

Home | Current Version | Previous Version | Graphics & Text | Print | Product List | Glossary On
Versions: 1 2 3 4 5 6 7 8 9 10 11 12 13 14 15 16 17 18 19 20 21 22 23 24 25 26 27 28 29 30 31 32 33 34 35 36 37 38 39 40 41 42 43 44 45 46 47 48 49 50
000
ASUS44 KMEG 220100
RWRTN
TENNESSEE HOURLY STATE WEATHER ROUNDUP
NATIONAL WEATHER SERVICE MEMPHIS TN
800 PM CDT SUN SEP 21 2014

TNZ002-004-019-021-049-052-054-088>092-220200-
WEST TENNESSEE

CITY           SKY/WX    TMP DP  RH WIND       PRES   REMARKS
MEMPHIS INTL   MOCLDY    81  61  50 N18G25    30.01R
NWS MEMPHIS      N/A     78 N/A N/A MISG        N/A
JACKSON        CLEAR     71  54  54 N7        30.02R
DYERSBURG      CLEAR     70  46  43 N6        30.04R
UNION CITY     CLEAR     63  55  77 N7        30.02R
PARIS          CLEAR     66  48  52 NW3       30.03R
SAVANNAH       CLEAR     73  70  88 N6        30.00R
$$

TNZ008-025-027-028-033-062-065-066-220200-
NORTH MIDDLE TENNESSEE

CITY           SKY/WX    TMP DP  RH WIND       PRES   REMARKS
NASHVILLE      PTCLDY    74  49  41 N10       30.01R
CLARKSVILLE    CLEAR     66  50  56 N8        30.01R
COOKEVILLE     CLEAR     72  61  68 N5        30.00R
CROSSVILLE     MOCLDY    70  65  84 W7        30.02R
$$

TNZ061-075-076-078-094-096-097-220200-
SOUTH MIDDLE TENNESSEE

CITY           SKY/WX    TMP DP  RH WIND       PRES   REMARKS
SHELBYVILLE    MOCLDY    77  66  69 NW10      29.99R
$$

TNZ017-018-042-046-047-220200-
NORTHEAST TENNESSEE

CITY           SKY/WX    TMP DP  RH WIND       PRES   REMARKS
TRI CITIES     MOCLDY    69  66  90 CALM      29.92S
ELIZABETHTON   MOCLDY    63  63 100 CALM      29.94S FOG
$$

TNZ012-013-036-069-073-074-220200-
CENTRAL EAST TENNESSEE

CITY           SKY/WX    TMP DP  RH WIND       PRES   REMARKS
KNOXVILLE      MOCLDY    70  68  93 SW7       29.94R
OAK RIDGE      PTCLDY    73  69  87 CALM      29.96R
GATLINBURG     PTCLDY    72  66  83 SW7       29.95R
$$

TNZ083-085-099-220200-
SOUTHEAST TENNESSEE

CITY           SKY/WX    TMP DP  RH WIND       PRES   REMARKS
CHATTANOOGA    CLOUDY    76  65  68 W3        29.96R
$$

SKY/WX REPORTED AS FAIR MEANS FEW OR NO CLOUDS BELOW
12 THOUSAND FEET.



USA.gov is the U.S. government's official web portal to all federal, state and local government web resources and services.